Tracking 28125 objects as of 2-Oct-2023
HD Live streaming from Space Station
objects crossing your sky now

STARLINK-4337

Track STARLINK-4337 now!
10-day predictions
STARLINK-4337 is classified as:


NORAD ID: 53053
Int'l Code: 2022-077L
Perigee: 569.7 km
Apogee: 570.6 km
Inclination: 97.7 °
Period: 95.9 minutes
Semi major axis: 6941 km
RCS: Unknown
Launch date: July 11, 2022
Source: United States (US)
Launch site: AIR FORCE WESTERN TEST RANGE (AFWTR)
Your satellite tracking list
Your tracking list is empty




NASA's NSSDC Master Catalog

Two Line Element Set (TLE):
1 53053U 22077L   23275.08175356 -.00000848  00000-0 -61475-4 0  9997
2 53053  97.6555  94.6205 0000705 144.5106 215.6166 15.01256417 68029
Source of the keplerian elements: AFSPC